Chadron, NE

11:32 PM MDT on June 23, 2017 (GMT -0600)
Chadron Municipal

Weather History for KCDR - March, 2013

Change the Weather History Date:

Tuesday, March 5, 2013

  Actual Average Record
Temperature  
Mean Temperature 26 °F 32 °F  
Max Temperature 38 °F 48 °F 74 °F (1950)
Min Temperature 13 °F 18 °F -26 °F (1989)
Degree Days  
Heating Degree Days 39 32  
Month to date heating degree days 137 165  
Since 1 July heating degree days 5033 5417  
Cooling Degree Days 0 0  
Month to date cooling degree days 0 0  
Year to date cooling degree days 0 0  
Moisture  
Dew Point 9 °F    
Average Humidity 54    
Maximum Humidity 80    
Minimum Humidity 27    
Precipitation  
Precipitation 0.00 in 0.04 in 1.38 in (1983)
Month to date precipitation 0.00 0.17  
Year to date precipitation 0.85 1.14  
Sea Level Pressure  
Sea Level Pressure 30.40 in    
Wind  
Wind Speed 8 mph (WNW)    
Max Wind Speed 29 mph    
Max Gust Speed 38 mph    
Visibility 10 miles    
Events      
T = Trace of Precipitation, MM = Missing Value Source: NWS Daily Summary

Daily Weather History Graph

Daily Weather History Graph

Search for Another Location

Airport or City:

Trip Planner

Search our weather history database for the weather conditions in past years. The results will help you decide how hot, cold, wet, or windy it might be!

Date:

Astronomy

Mar. 05, 2013 Rise Set
Actual Time 6:21 AM MST 5:47 PM MST
Civil Twilight 5:52 AM MST 6:15 PM MST
Nautical Twilight 5:20 AM MST 6:48 PM MST
Astronomical Twilight 4:47 AM MST 7:21 PM MST
Moon 1:41 AM MST (3/5) 11:22 AM MST (3/5)
Length of Visible Light 12h 22m
Length of Day
11h 26m
Last Quarter, 40% of the Moon is Illuminated
Mar 5
Last Quarter
Mar 11
New
Mar 19
First Quarter
Mar 27
Full
Apr 2
Last Quarter

Hourly Weather History & Observations

Time (MST) Temp. Windchill Dew Point Humidity Pressure Visibility Wind Dir Wind Speed Gust Speed Precip Events Conditions
12:53 AM 19.0 °F 3.2 °F 9.0 °F 65% 30.40 in 10.0 mi WNW 19.6 mph 33.4 mph N/A   Clear
1:53 AM 18.0 °F 1.7 °F 9.0 °F 68% 30.41 in 10.0 mi West 19.6 mph 25.3 mph N/A   Clear
2:53 AM 17.1 °F 0.6 °F 9.0 °F 71% 30.43 in 10.0 mi WNW 19.6 mph 28.8 mph N/A   Clear
3:53 AM 17.1 °F 0.6 °F 9.0 °F 71% 30.44 in 10.0 mi WNW 19.6 mph 25.3 mph N/A   Clear
4:53 AM 15.1 °F 2.5 °F 8.1 °F 74% 30.46 in 10.0 mi West 10.4 mph - N/A   Clear
5:53 AM 14.0 °F -0.2 °F 8.1 °F 77% 30.47 in 10.0 mi West 12.7 mph - N/A   Clear
6:53 AM 14.0 °F 5.1 °F 8.1 °F 77% 30.48 in 10.0 mi West 5.8 mph - N/A   Clear
7:53 AM 19.9 °F 5.7 °F 10.0 °F 65% 30.48 in 10.0 mi NW 16.1 mph 26.5 mph N/A   Clear
8:53 AM 25.0 °F 14.8 °F 10.0 °F 53% 30.48 in 10.0 mi NW 10.4 mph - N/A   Clear
9:53 AM 27.0 °F - 8.1 °F 45% 30.47 in 10.0 mi Calm Calm - N/A   Clear
10:53 AM 28.9 °F - 7.0 °F 40% 30.45 in 10.0 mi Calm Calm - N/A   Clear
11:53 AM 32.0 °F 28.7 °F 7.0 °F 35% 30.45 in 10.0 mi Variable 3.5 mph - N/A   Clear
12:53 PM 34.0 °F - 6.1 °F 31% 30.39 in 10.0 mi Calm Calm - N/A   Clear
1:53 PM 36.0 °F - 6.1 °F 29% 30.38 in 10.0 mi Calm Calm - N/A   Clear
2:53 PM 36.0 °F 32.1 °F 6.1 °F 29% 30.36 in 10.0 mi SE 4.6 mph - N/A   Clear
3:53 PM 37.0 °F - 7.0 °F 29% 30.35 in 10.0 mi Calm Calm - N/A   Clear
4:53 PM 36.0 °F 29.0 °F 8.1 °F 31% 30.35 in 10.0 mi East 9.2 mph - N/A   Clear
5:53 PM 28.9 °F 21.9 °F 9.0 °F 43% 30.36 in 10.0 mi ENE 6.9 mph - N/A   Clear
6:53 PM 25.0 °F 19.3 °F 10.9 °F 55% 30.37 in 10.0 mi ESE 4.6 mph - N/A   Clear
7:53 PM 26.1 °F 19.4 °F 12.0 °F 55% 30.35 in 10.0 mi East 5.8 mph - N/A   Clear
8:53 PM 24.1 °F - 12.0 °F 60% 30.35 in 10.0 mi Calm Calm - N/A   Clear
9:53 PM 25.0 °F 17.1 °F 12.9 °F 60% 30.33 in 10.0 mi SE 6.9 mph - N/A   Clear
10:53 PM 24.1 °F 16.0 °F 12.9 °F 62% 30.31 in 10.0 mi SE 6.9 mph - N/A   Clear
11:53 PM 28.0 °F 21.7 °F 12.0 °F 51% 30.28 in 10.0 mi Variable 5.8 mph 17.3 mph N/A   Clear